GLOBALSTAR M043 [-]

Last updated on Fri Dec 29 2023 00:02:56 GMT+0000 (Coordinated Universal Time)

1 25874U 99041C 23361.95867231 -.00000087 00000+0 -56998-3 0 9991 2 25874 51.9395 257.3684 0013578 113.3805 330.8789 11.25673709 62377

Satellite not in orbit

GLOBALSTAR M043 [-]